CW4185 Weather Reports


Display with metric or nautical units.
time (UTC)temp
F
wind
direction
speed
MPH
gust
MPH
rain 1hr
in
rain 24hr
in
rain mn
in
humidity
%
barometer
mb
20260906064646 77 216 1.0 3.0 0.00 0.00 0.00 98 1011.9
20260906064146 77 207 2.0 3.0 0.00 0.00 0.00 98 1011.9
20260906063649 77 189 2.0 3.0 0.00 0.00 0.00 98 1011.5
20260906063146 77 187 1.0 2.0 0.00 0.00 0.00 98 1011.9
20260906062646 77 232 1.0 2.0 0.00 0.00 0.00 98 1011.9
20260906062146 77 210 0.0 2.0 0.00 0.00 0.00 98 1011.9
20260906061646 77 221 0.0 1.0 0.00 0.00 0.00 97 1011.5
20260906061147 77 180 0.0 1.0 0.00 0.00 0.00 98 1011.9
20260906060647 77 213 2.0 2.0 0.00 0.00 0.00 98 1011.9
20260906060147 77 235 1.0 3.0 0.00 0.00 0.00 98 1011.9
20260906055646 77 221 2.0 3.0 0.00 0.00 0.00 98 1011.5
20260906055146 77 213 4.0 5.0 0.00 0.00 0.00 98 1011.9
20260906054646 77 196 1.0 3.0 0.00 0.00 0.00 98 1011.9
20260906054146 77 283 2.0 3.0 0.00 0.00 0.00 98 1011.9
20260906053646 77 228 2.0 5.0 0.00 0.00 0.00 98 1011.9
20260906053146 77 231 2.0 4.0 0.00 0.00 0.00 97 1011.9
20260906052646 77 215 3.0 5.0 0.00 0.00 0.00 97 1011.9
20260906052146 77 201 3.0 5.0 0.00 0.00 0.00 97 1011.9
20260906051647 77 185 3.0 5.0 0.00 0.00 0.00 97 1011.5
20260906051146 77 225 4.0 5.0 0.00 0.00 0.00 97 1011.5
20260906050646 77 213 4.0 4.0 0.00 0.00 0.00 97 1011.5
20260906050147 77 194 2.0 4.0 0.00 0.00 0.00 97 1011.9
20260906045646 77 209 2.0 3.0 0.00 0.00 1.16 97 1011.5
20260906045146 77 252 2.0 2.0 0.00 0.00 1.16 97 1011.5
20260906044646 77 205 1.0 3.0 0.00 0.00 1.16 97 1011.5
20260906044146 77 180 1.0 3.0 0.00 0.00 1.16 97 1011.5
20260906043646 77 197 2.0 4.0 0.00 0.00 1.16 97 1011.5
20260906043146 77 192 3.0 4.0 0.00 0.00 1.16 97 1011.5
20260906042646 78 183 3.0 4.0 0.00 0.00 1.16 96 1011.5
20260906042146 78 171 3.0 4.0 0.00 0.00 1.16 96 1011.9
20260906041646 78 184 3.0 3.0 0.00 0.00 1.16 96 1011.9
20260906041146 78 175 2.0 3.0 0.00 0.00 1.16 96 1011.5
20260906040646 78 168 3.0 4.0 0.00 0.00 1.16 95 1011.5
20260906040146 78 165 1.0 3.0 0.00 0.00 1.16 96 1011.5
20260906035646 78 141 2.0 3.0 0.00 0.00 1.16 96 1011.5
20260906035147 78 129 0.0 0.0 0.00 0.00 1.16 95 1011.5
20260906034646 78 160 1.0 3.0 0.00 0.00 1.16 95 1011.5
20260906034146 78 152 2.0 2.0 0.00 0.00 1.16 96 1011.5
20260906033646 78 132 1.0 3.0 0.00 0.00 1.16 96 1011.5
20260906033146 78 190 2.0 2.0 0.00 0.00 1.16 95 1011.5
20260906032646 78 239 2.0 4.0 0.00 0.00 1.16 95 1011.5
20260906032147 78 194 3.0 3.0 0.00 0.00 1.16 95 1011.5
20260906031646 78 183 3.0 3.0 0.00 0.00 1.16 95 1011.9
20260906031146 78 154 1.0 2.0 0.00 0.00 1.16 95 1011.9
20260906030646 78 224 0.0 3.0 0.00 0.00 1.16 95 1011.5
20260906030146 78 214 2.0 3.0 0.00 0.00 1.16 95 1011.5
20260906025646 78 192 2.0 3.0 0.00 0.00 1.16 95 1011.5
20260906025146 78 190 1.0 2.0 0.02 0.00 1.16 95 1011.5
20260906024646 78 163 2.0 3.0 0.02 0.00 1.16 95 1011.9
20260906024146 78 103 0.0 2.0 0.00 0.00 1.15 95 1011.5
20260906023646 78 65 0.0 1.0 0.00 0.00 1.15 95 1011.5
20260906023146 78 129 1.0 2.0 0.00 0.00 1.15 95 1011.5
20260906022646 78 193 2.0 2.0 0.00 0.00 1.15 95 1011.5
20260906022146 78 267 2.0 2.0 0.00 0.00 1.15 95 1011.5
20260906021646 78 282 1.0 3.0 0.00 0.00 1.15 94 1011.5
20260906021149 79 315 0.0 3.0 0.00 0.00 1.15 94 1011.5
20260906020647 79 288 2.0 2.0 0.00 0.00 1.15 94 1011.5
20260906020146 79 236 2.0 3.0 0.00 0.00 1.15 93 1011.9
20260906015647 79 313 1.0 3.0 0.00 0.00 1.15 94 1011.5
20260906015146 79 345 1.0 3.0 0.00 0.00 1.15 93 1011.2
20260906014646 79 34 0.0 2.0 0.00 0.00 1.15 92 1011.2
20260906014147 79 44 0.0 2.0 0.00 0.00 1.15 92 1011.5
20260906013646 79 82 2.0 3.0 0.00 0.00 1.15 93 1011.2
20260906013146 78 59 0.0 2.0 0.00 0.00 1.15 93 1011.2
20260906012646 78 164 0.0 0.0 0.00 0.00 1.15 92 1011.2
20260906012147 78 129 0.0 0.0 0.00 0.00 1.15 93 1011.2
20260906011647 78 148 2.0 3.0 0.00 0.00 1.15 93 1011.2
20260906011146 78 210 0.0 0.0 0.00 0.00 1.15 92 1011.2
20260906010647 78 135 0.0 0.0 0.00 0.00 1.15 92 1011.2
20260906010147 78 135 0.0 0.0 0.00 0.00 1.15 91 1011.2
20260906005646 78 143 2.0 2.0 0.00 0.00 1.15 91 1011.2
20260906005147 78 209 0.0 2.0 0.00 0.00 1.15 91 1011.5
20260906004646 78 284 1.0 3.0 0.00 0.00 1.15 91 1011.2
20260906004146 78 234 2.0 3.0 0.00 0.00 1.15 91 1011.2
20260906003646 79 232 2.0 2.0 0.00 0.00 1.15 91 1011.2
20260906003146 78 231 3.0 4.0 0.00 0.00 1.15 91 1011.5
20260906002646 78 230 2.0 5.0 0.00 0.00 1.15 92 1011.2
20260906002146 79 234 5.0 5.0 0.00 0.00 1.15 93 1011.2
20260906001646 79 228 4.0 4.0 0.00 0.00 1.15 93 1011.5
20260906001146 79 207 2.0 3.0 0.00 0.00 1.15 94 1011.5
20260906000646 79 228 2.0 4.0 0.00 0.00 1.15 94 1011.5
20260906000147 79 189 0.0 2.0 0.00 0.00 1.15 95 1011.5
20260905235646 79 173 2.0 2.0 0.00 0.00 1.15 95 1011.5
20260905235147 79 228 0.0 3.0 0.00 0.00 1.15 95 1011.5
20260905234647 79 275 2.0 4.0 0.00 0.00 1.15 94 1011.5
20260905234146 79 252 1.0 3.0 0.00 0.00 1.15 94 1011.2
20260905233646 78 226 2.0 3.0 0.00 0.00 1.15 94 1011.2
20260905233146 78 174 0.0 3.0 0.00 0.00 1.15 93 1011.5
20260905232646 78 192 2.0 3.0 0.00 0.00 1.15 93 1011.9
20260905232146 78 223 3.0 4.0 0.02 0.00 1.15 92 1011.9
20260905231646 78 243 3.0 4.0 0.05 0.00 1.15 91 1011.5
20260905231147 78 223 2.0 3.0 0.05 0.00 1.15 92 1011.5
20260905230646 78 47 0.0 4.0 0.05 0.00 1.15 92 1011.9
20260905230146 78 27 1.0 2.0 0.05 0.00 1.14 92 1011.5
20260905225647 78 71 2.0 4.0 0.17 0.00 1.14 93 1011.9
20260905225146 78 68 0.0 4.0 0.35 0.00 1.13 93 1012.2
20260905224646 79 13 5.0 6.0 0.40 0.00 1.11 94 1012.2
20260905224147 80 16 3.0 6.0 0.24 0.00 1.07 93 1012.2
20260905223646 80 63 0.0 9.0 0.07 0.00 1.04 92 1012.2
20260905223146 82 66 13.0 13.0 0.00 0.00 1.03 87 1012.2
20260905222646 82 341 3.0 5.0 0.00 0.00 1.03 86 1011.9
20260905222146 83 7 3.0 4.0 0.00 0.00 1.03 85 1012.2
20260905221646 83 335 3.0 5.0 0.00 0.00 1.03 83 1012.2
20260905221146 83 284 5.0 9.0 0.00 0.00 1.03 82 1011.9
20260905220646 83 237 8.0 16.0 0.00 0.00 1.03 83 1011.9
20260905220148 83 224 12.0 13.0 0.00 0.00 1.03 83 1011.9
20260905215647 84 216 11.0 18.0 0.00 0.00 1.03 82 1011.5
20260905215146 88 218 13.0 20.0 0.00 0.00 1.03 73 1011.5
20260905214646 89 217 9.0 11.0 0.00 0.00 1.03 67 1011.5
20260905214146 88 197 9.0 9.0 0.00 0.00 1.03 67 1011.2
20260905213646 89 177 10.0 12.0 0.00 0.00 1.03 67 1011.5
20260905213148 89 180 9.0 13.0 0.00 0.00 1.03 68 1011.2
20260905212646 90 198 5.0 11.0 0.00 0.00 1.03 66 1011.2
20260905212146 90 189 7.0 10.0 0.00 0.00 1.03 67 1011.2
20260905211646 90 179 6.0 10.0 0.00 0.00 1.03 69 1011.2
20260905211148 89 172 6.0 9.0 0.00 0.00 1.03 69 1011.2
20260905210646 89 138 6.0 6.0 0.00 0.00 1.03 65 1011.2
20260905210146 89 163 3.0 8.0 0.00 0.00 1.03 66 1011.2
20260905205646 89 181 7.0 9.0 0.00 0.00 1.03 66 1011.2
20260905205146 90 177 4.0 8.0 0.00 0.00 1.03 65 1011.2
20260905204646 92 145 3.0 5.0 0.00 0.00 1.03 62 1011.2
20260905204147 91 251 1.0 4.0 0.00 0.00 1.03 64 1011.2
20260905203646 90 127 3.0 6.0 0.00 0.00 1.03 66 1011.2
20260905203146 90 168 5.0 9.0 0.00 0.00 1.03 66 1011.2
20260905202646 90 15 1.0 5.0 0.00 0.00 1.03 64 1011.2
20260905202146 90 177 5.0 6.0 0.00 0.00 1.03 67 1011.2
20260905201646 90 79 3.0 9.0 0.00 0.00 1.03 65 1011.5
20260905201146 91 160 4.0 8.0 0.00 0.00 1.03 66 1011.2
20260905200646 91 167 5.0 7.0 0.00 0.00 1.03 66 1011.5
20260905200147 89 59 3.0 4.0 0.00 0.00 1.03 69 1011.2
20260905195646 89 173 5.0 7.0 0.00 0.00 1.03 69 1011.2
20260905195147 90 181 4.0 6.0 0.00 0.00 1.03 67 1011.5
20260905194647 90 176 3.0 4.0 0.00 0.00 1.03 68 1011.9
20260905194146 89 107 1.0 3.0 0.00 0.00 1.03 70 1011.9
20260905193646 88 160 4.0 7.0 0.00 0.00 1.03 71 1011.5
20260905193147 88 116 2.0 5.0 0.00 0.00 1.03 70 1011.9
20260905192648 88 311 2.0 5.0 0.00 0.00 1.03 71 1011.9
20260905192146 88 344 2.0 4.0 0.00 0.00 1.03 70 1012.2
20260905191646 88 356 3.0 7.0 0.00 0.00 1.03 70 1012.2
20260905191146 89 327 2.0 5.0 0.00 0.00 1.03 69 1012.2
20260905190647 90 59 3.0 7.0 0.00 0.00 1.03 68 1012.2
20260905190146 90 232 3.0 5.0 0.00 0.00 1.03 68 1012.2
20260905185647 91 169 3.0 6.0 0.00 0.00 1.03 69 1011.9
20260905185147 89 44 0.0 4.0 0.00 0.00 1.03 67 1012.2
20260905184646 90 322 3.0 4.0 0.00 0.00 1.03 65 1012.5
20260905184147 90 42 0.0 6.0 0.00 0.00 1.03 65 1012.9
20260905183647 89 314 2.0 5.0 0.00 0.00 1.03 70 1012.9
20260905183147 88 357 1.0 5.0 0.00 0.00 1.03 70 1012.9
20260905182646 88 354 3.0 6.0 0.00 0.00 1.03 74 1012.9
20260905182146 88 287 3.0 5.0 0.00 0.00 1.03 74 1013.2
20260905181646 87 269 3.0 3.0 0.00 0.00 1.03 75 1012.9
20260905181146 86 240 3.0 5.0 0.00 0.00 1.03 75 1013.2
20260905180646 86 252 1.0 4.0 0.00 0.00 1.03 77 1013.2
20260905180147 86 199 5.0 6.0 0.00 0.00 1.03 78 1013.2
20260905175646 86 242 2.0 3.0 0.00 0.00 1.03 82 1013.2
20260905175146 85 261 4.0 5.0 0.00 0.00 1.03 82 1013.2
20260905174647 84 205 4.0 5.0 0.00 0.00 1.03 84 1013.2
20260905174147 84 209 5.0 5.0 0.00 0.00 1.03 86 1013.2
20260905173654 83 157 0.0 4.0 0.00 0.00 1.03 89 1013.2
20260905173147 82 223 2.0 5.0 0.00 0.00 1.03 91 1013.2
20260905172646 81 251 4.0 4.0 0.00 0.00 1.03 91 1013.5
20260905172146 81 285 3.0 4.0 0.00 0.00 1.03 91 1013.5
20260905171647 82 291 3.0 5.0 0.00 0.00 1.03 93 1013.5
20260905171147 81 335 2.0 4.0 0.00 0.00 1.03 95 1013.5
20260905170647 79 355 0.0 3.0 0.00 0.00 1.03 97 1013.5
20260905170146 80 315 0.0 3.0 0.00 0.00 1.03 99 1013.5
20260905165646 79 355 0.0 3.0 0.02 0.00 1.03 99 1013.9
20260905165146 79 339 2.0 3.0 0.09 0.00 1.03 99 1013.9
20260905164647 78 268 4.0 5.0 0.21 0.00 1.03 99 1013.9
20260905164147 78 262 2.0 4.0 0.33 0.00 1.02 98 1013.9
20260905163646 77 82 0.0 7.0 0.69 0.00 0.99 99 1013.9
20260905163146 77 58 5.0 5.0 1.23 0.00 0.95 98 1014.2
20260905162646 77 133 3.0 5.0 1.16 0.00 0.85 98 1014.2
20260905162146 77 176 4.0 7.0 1.70 0.00 0.75 98 1014.2
20260905161646 77 163 5.0 6.0 2.03 0.00 0.59 97 1014.2
20260905161146 77 186 6.0 9.0 1.49 0.00 0.44 97 1014.2
20260905160646 78 201 9.0 15.0 0.90 0.00 0.28 96 1014.2
20260905160146 78 216 6.0 10.0 0.47 0.00 0.18 94 1014.2
20260905155647 79 173 9.0 10.0 0.33 0.00 0.13 95 1013.9
20260905155148 79 138 4.0 9.0 0.50 0.00 0.10 95 1014.2
20260905154646 80 141 6.0 6.0 0.31 0.00 0.06 92 1013.9
20260905154147 80 193 4.0 9.0 0.07 0.00 0.01 91 1013.5
20260905153646 81 153 4.0 6.0 0.02 0.00 0.00 89 1013.5
20260905153147 81 129 2.0 7.0 0.00 0.00 0.00 88 1013.9
20260905152646 81 57 3.0 6.0 0.00 0.00 0.00 89 1013.5
20260905152147 81 175 3.0 7.0 0.00 0.00 0.00 88 1013.5
20260905151646 82 180 5.0 7.0 0.00 0.00 0.00 86 1013.5
20260905151147 85 186 5.0 5.0 0.00 0.00 0.00 84 1013.5
20260905150646 85 194 1.0 3.0 0.00 0.00 0.00 79 1013.5
20260905150147 85 269 3.0 5.0 0.00 0.00 0.00 80 1013.5
20260905145646 86 332 4.0 6.0 0.00 0.00 0.00 78 1013.5
20260905145147 86 358 3.0 5.0 0.00 0.00 0.00 78 1013.5
20260905144647 85 58 4.0 5.0 0.00 0.00 0.00 78 1013.2
20260905144146 86 21 2.0 3.0 0.00 0.00 0.00 80 1013.5
20260905143646 85 359 3.0 3.0 0.00 0.00 0.00 81 1013.5
20260905143146 84 330 3.0 4.0 0.00 0.00 0.00 82 1013.5
20260905142647 84 58 0.0 5.0 0.00 0.00 0.00 83 1013.5
20260905142147 84 333 2.0 6.0 0.00 0.00 0.00 84 1013.5
20260905141647 84 350 4.0 5.0 0.00 0.00 0.00 84 1013.5
20260905141147 85 305 6.0 8.0 0.00 0.00 0.00 83 1013.5
20260905140646 85 356 5.0 6.0 0.00 0.00 0.00 82 1013.5
20260905140146 85 7 2.0 5.0 0.00 0.00 0.00 83 1013.5
20260905135646 85 311 2.0 6.0 0.00 0.00 0.00 83 1013.5
20260905135146 84 24 5.0 5.0 0.00 0.00 0.00 85 1013.5
20260905134648 84 288 7.0 8.0 0.00 0.00 0.00 85 1013.5
20260905134147 84 360 5.0 6.0 0.00 0.00 0.00 86 1013.5
20260905133647 84 339 4.0 8.0 0.00 0.00 0.00 85 1013.2
20260905133146 84 305 3.0 6.0 0.00 0.00 0.00 83 1013.5
20260905132647 84 48 0.0 4.0 0.00 0.00 0.00 85 1013.5
20260905132146 83 296 4.0 5.0 0.00 0.00 0.00 87 1013.5
20260905131647 83 294 3.0 4.0 0.00 0.00 0.00 88 1013.2
20260905131147 82 275 3.0 4.0 0.00 0.00 0.00 87 1013.5
20260905130646 82 314 2.0 3.0 0.00 0.00 0.00 87 1013.5
20260905130146 82 337 3.0 4.0 0.00 0.00 0.00 87 1013.5
20260905125647 82 338 1.0 3.0 0.00 0.00 0.00 88 1013.5
20260905125147 81 105 1.0 4.0 0.00 0.00 0.00 91 1013.5
20260905124647 80 281 1.0 3.0 0.00 0.00 0.00 92 1013.2
20260905124146 80 213 2.0 4.0 0.00 0.00 0.00 93 1013.2
20260905123646 79 342 1.0 3.0 0.00 0.00 0.00 93 1013.5
20260905123146 79 351 1.0 4.0 0.00 0.00 0.00 94 1013.2
20260905122647 79 341 2.0 3.0 0.00 0.00 0.00 95 1013.5
20260905122146 78 350 2.0 3.0 0.00 0.00 0.00 95 1013.2
20260905121646 78 307 0.0 3.0 0.00 0.00 0.00 95 1013.5
20260905121146 78 346 3.0 3.0 0.00 0.00 0.00 95 1013.5
20260905120646 78 333 3.0 3.0 0.00 0.00 0.00 94 1013.2
20260905120146 78 171 1.0 3.0 0.00 0.00 0.00 94 1013.2
20260905115646 78 292 2.0 4.0 0.00 0.00 0.00 94 1013.2
20260905115147 78 119 2.0 3.0 0.00 0.00 0.00 94 1013.2
20260905114646 78 211 2.0 4.0 0.00 0.00 0.00 94 1013.2
20260905114146 78 220 1.0 4.0 0.00 0.00 0.00 94 1013.2
20260905113647 78 167 1.0 3.0 0.00 0.00 0.00 94 1013.2
20260905113146 78 234 2.0 3.0 0.00 0.00 0.00 94 1012.9
20260905112646 78 175 3.0 4.0 0.00 0.00 0.00 94 1012.9
20260905112146 78 230 2.0 3.0 0.00 0.00 0.00 93 1012.5
20260905111650 78 253 2.0 4.0 0.00 0.00 0.00 93 1012.5
20260905111146 78 274 0.0 3.0 0.00 0.00 0.00 94 1012.5
20260905110646 78 237 2.0 3.0 0.00 0.00 0.00 94 1012.2
20260905110147 78 23 1.0 3.0 0.00 0.00 0.00 94 1012.5
20260905105646 78 189 2.0 3.0 0.00 0.00 0.00 94 1012.2
20260905105146 78 282 2.0 4.0 0.00 0.00 0.00 94 1012.2
20260905104646 78 220 0.0 3.0 0.00 0.00 0.00 94 1012.2
20260905104146 78 81 0.0 0.0 0.00 0.00 0.00 94 1012.2
20260905103647 78 89 0.0 0.0 0.00 0.00 0.00 94 1012.2
20260905103147 78 360 0.0 1.0 0.00 0.00 0.00 93 1012.2
20260905102646 79 320 1.0 1.0 0.00 0.00 0.00 93 1012.2
20260905102146 79 284 2.0 2.0 0.00 0.00 0.00 93 1012.5
20260905101648 79 238 1.0 1.0 0.00 0.00 0.00 93 1012.5
20260905101146 79 212 0.0 1.0 0.00 0.00 0.00 93 1012.2
20260905100646 79 200 0.0 2.0 0.00 0.00 0.00 92 1012.5
20260905100146 79 205 0.0 2.0 0.00 0.00 0.00 92 1012.5
20260905095646 79 283 2.0 3.0 0.00 0.00 0.00 92 1012.5
20260905095147 79 308 2.0 2.0 0.00 0.00 0.00 92 1012.5
20260905094646 79 308 1.0 2.0 0.00 0.00 0.00 92 1012.5
20260905094146 79 20 0.0 2.0 0.00 0.00 0.00 93 1012.5
20260905093647 79 311 0.0 2.0 0.00 0.00 0.00 93 1012.5
20260905093146 79 309 0.0 1.0 0.00 0.00 0.00 93 1012.5
20260905092647 79 248 0.0 1.0 0.00 0.00 0.00 93 1012.5
20260905092147 79 141 0.0 0.0 0.00 0.00 0.00 92 1012.5
20260905091647 79 279 0.0 2.0 0.00 0.00 0.00 93 1012.5
20260905091146 79 333 0.0 2.0 0.00 0.00 0.00 92 1012.5
20260905090648 79 294 1.0 2.0 0.00 0.00 0.00 92 1012.5
20260905090147 79 276 0.0 2.0 0.00 0.00 0.00 93 1012.5
20260905085646 79 216 2.0 3.0 0.00 0.00 0.00 93 1012.2
20260905085146 79 197 2.0 2.0 0.00 0.00 0.00 93 1012.5
20260905084646 79 227 2.0 2.0 0.00 0.00 0.00 93 1012.5
20260905084147 79 256 0.0 2.0 0.00 0.00 0.00 93 1012.2
20260905083646 79 284 0.0 0.0 0.00 0.00 0.00 92 1012.5
20260905083146 79 322 0.0 1.0 0.00 0.00 0.00 93 1012.5
20260905082647 79 284 1.0 2.0 0.00 0.00 0.00 93 1012.5
20260905082146 79 287 1.0 2.0 0.00 0.00 0.00 93 1012.2
20260905081646 79 234 0.0 1.0 0.00 0.00 0.00 93 1012.2
20260905081146 79 207 0.0 1.0 0.00 0.00 0.00 93 1012.2
20260905080647 79 294 2.0 2.0 0.00 0.00 0.00 93 1012.2
20260905080147 79 275 2.0 2.0 0.00 0.00 0.00 93 1011.9
20260905075647 79 230 0.0 2.0 0.00 0.00 0.00 93 1012.2
20260905075147 79 221 1.0 2.0 0.00 0.00 0.00 93 1012.2
20260905074647 79 236 1.0 3.0 0.00 0.00 0.00 93 1012.2
20260905074146 79 326 0.0 2.0 0.00 0.00 0.00 93 1012.5
20260905073646 79 282 0.0 2.0 0.00 0.00 0.00 93 1012.2
20260905073146 78 224 0.0 2.0 0.00 0.00 0.00 93 1012.2
20260905072646 79 230 2.0 3.0 0.00 0.00 0.00 93 1012.2
20260905071742 79 278 1.0 4.0 0.00 0.00 0.00 93 1012.2
20260905071146 79 235 2.0 3.0 0.00 0.00 0.00 94 1012.5
20260905070646 79 277 1.0 4.0 0.00 0.00 0.00 94 1012.2
20260905070146 79 284 0.0 3.0 0.00 0.00 0.00 94 1012.2
20260905065646 79 208 2.0 3.0 0.00 0.00 0.00 94 1012.2
20260905065146 79 218 2.0 4.0 0.00 0.00 0.00 94 1011.9